Wind_Speed
16 15 15 14 13 13 12 12 12 12 13 13 14 14 15 16 16 16 16 16 16 16 17 18 18 18 17 16 16 15 15 15 15 15 15 16 16 16 16 16 16 16 16
16 15 15 14 13 12 12 11 12 12 13 13 14 15 15 16 16 17 17 17 16 17 17 18 19 19 18 18 17 17 17 16 16 16 17 17 17 16 16 16 16 16 17
16 16 15 14 14 13 12 12 12 13 13 14 15 15 16 16 17 17 17 17 17 17 18 18 19 19 18 18 17 17 17 17 17 17 18 18 17 17 17 16 17 17 17
17 17 16 15 15 14 13 13 13 14 14 15 15 16 16 16 17 17 17 17 18 18 18 18 18 18 18 18 18 18 18 18 18 18 18 18 18 18 17 17 17 18 17
19 18 17 17 16 15 14 14 14 14 15 15 16 16 16 16 16 16 17 17 18 18 19 19 19 18 18 18 18 18 18 18 18 18 18 18 18 18 18 18 18 18 18
20 19 19 18 18 17 16 15 14 15 15 16 17 17 18 18 18 18 18 18 18 19 19 19 19 19 18 18 18 19 19 19 19 18 18 19 19 19 19 19 19 20 20
21 21 20 20 19 18 17 17 16 16 17 18 19 19 20 20 20 19 19 19 19 19 19 19 19 19 19 19 19 19 20 20 19 19 19 19 19 20 20 20 20 21 22
23 23 22 21 20 19 19 19 19 19 19 19 20 21 21 21 21 20 20 20 20 19 19 19 19 19 19 20 20 20 20 20 20 19 19 19 19 19 20 20 21 22 23
25 25 24 23 22 21 21 21 22 21 21 21 22 22 22 22 22 21 21 21 21 20 19 19 20 20 20 20 20 20 20 19 19 19 19 18 18 19 19 20 21 22 24
27 27 26 24 23 23 23 24 24 24 24 23 23 23 23 22 22 22 22 22 22 21 20 20 20 20 20 21 21 20 20 19 19 18 18 18 18 19 19 20 21 22 23
29 28 27 26 25 25 25 26 26 26 25 25 24 23 23 23 23 23 23 23 23 22 21 21 21 21 21 21 21 21 20 20 19 19 19 19 19 20 20 21 22 22 23
30 29 28 27 27 27 27 28 27 27 26 25 25 24 24 23 23 23 24 24 24 23 22 22 22 22 22 22 22 22 22 21 20 21 20 20 21 21 21 21 21 22 22
31 30 29 29 29 29 28 28 28 27 26 26 26 26 25 24 24 24 25 25 25 24 24 23 23 23 23 23 24 24 24 23 22 22 22 22 22 22 22 22 22 22 22
32 31 31 30 30 29 29 28 28 27 27 27 27 27 26 26 25 25 26 26 26 26 26 25 25 25 25 25 26 26 26 25 24 24 24 24 23 23 23 23 23 23 22
33 32 31 30 30 30 29 28 28 27 27 27 27 27 28 27 27 27 27 27 27 28 28 28 28 27 28 28 28 28 28 28 26 25 26 26 25 25 24 24 23 23 22
33 32 32 31 31 30 29 29 28 28 28 28 28 28 29 28 28 29 29 28 29 29 29 30 30 30 30 30 31 30 30 29 29 27 27 28 27 27 26 25 24 23 22
34 33 32 32 31 30 30 29 29 29 29 29 29 29 30 30 30 30 31 31 31 32 32 32 33 33 33 33 33 33 32 32 31 30 28 29 29 29 28 27 26 25 24
34 33 33 32 31 31 31 31 30 31 31 31 31 31 32 33 33 33 33 34 34 35 35 35 35 36 36 36 36 35 34 34 33 32 30 30 30 30 30 29 28 27 26
34 34 33 33 32 32 32 32 32 32 32 33 34 34 35 35 36 36 36 37 38 38 38 38 39 39 39 39 39 38 37 36 36 34 33 32 31 31 32 32 30 29 28
35 35 34 34 34 34 34 34 34 33 34 35 36 37 38 39 39 40 40 40 40 41 41 42 42 42 42 42 42 41 40 39 39 37 35 34 33 33 33 33 33 32 31
36 36 36 36 35 35 35 36 36 36 37 38 39 40 41 42 42 43 43 43 44 44 44 44 45 45 46 46 46 45 45 43 41 40 39 37 36 36 35 35 35 34 34
36 36 37 37 37 37 37 38 39 39 39 40 41 42 43 45 46 47 47 47 47 48 48 48 48 49 49 49 49 49 48 47 44 43 43 41 40 39 38 37 37 37 37
36 36 37 37 38 39 39 39 40 41 42 42 43 44 45 47 48 49 50 50 51 51 51 51 52 52 52 53 53 53 51 50 49 47 46 45 44 42 42 41 40 40 40
36 36 37 38 39 39 40 41 42 43 43 44 45 46 46 48 49 50 51 52 53 54 54 54 55 55 55 55 56 56 55 54 53 51 49 48 47 46 45 45 44 43 43
36 37 38 39 39 40 41 42 43 43 44 44 45 46 47 48 49 50 51 53 55 56 57 57 57 58 58 58 58 58 59 58 56 55 53 51 50 50 49 48 47 46 45
38 39 39 39 40 40 41 42 42 43 44 44 45 46 47 48 49 50 51 53 55 56 58 59 60 61 61 61 61 61 61 60 59 58 57 55 54 52 52 51 50 49 49
Wind_Direction
244 249 254 258 262 266 269 271 273 276 278 280 282 285 288 291 293 294 295 295 295 296 297 298 298 298 297 297 297 295 293 292 293 294 296 298 299 300 302 303 304 305 306
242 246 250 254 259 263 267 270 273 275 278 279 281 282 284 287 289 291 292 293 294 295 297 298 299 298 297 296 296 295 293 293 293 293 294 295 296 297 299 300 300 301 303
241 244 249 253 257 260 265 269 273 276 278 280 280 280 281 283 285 287 289 291 293 295 298 299 300 299 299 297 296 295 294 294 294 294 294 294 294 295 295 296 296 297 298
239 243 248 251 255 258 262 266 271 274 276 278 280 280 281 282 283 286 288 291 293 295 297 298 298 298 297 297 295 295 295 294 294 294 294 295 295 294 294 294 294 294 295
238 243 247 250 252 254 256 260 264 270 274 277 280 281 282 283 285 287 290 292 294 295 295 296 295 295 294 294 294 294 294 293 292 292 292 293 293 292 293 293 293 293 294
238 242 245 247 249 251 253 254 258 264 271 276 280 283 285 286 287 288 290 291 293 294 294 295 294 294 293 292 291 292 292 291 291 290 290 290 291 291 291 291 291 291 292
238 241 243 246 248 250 252 254 257 262 269 276 281 284 286 287 288 288 288 289 292 294 295 295 295 294 293 292 291 291 291 291 290 290 290 290 289 289 289 289 288 288 289
237 240 243 246 248 252 255 259 262 267 271 276 281 284 286 287 288 288 288 289 291 293 294 294 294 293 293 293 292 292 292 291 291 291 290 290 289 288 287 287 287 287 288
236 239 242 246 250 255 260 266 270 273 275 278 281 283 285 287 288 289 290 291 292 293 294 294 293 292 292 292 292 292 291 291 291 291 291 291 291 290 290 289 290 290 290
235 238 242 246 252 258 264 270 274 277 279 281 282 282 284 285 287 289 290 291 291 292 293 293 292 291 291 291 291 291 291 291 290 290 291 291 292 292 292 292 292 292 292
235 238 243 249 255 261 267 272 276 279 282 283 283 283 284 284 286 288 289 289 290 290 290 291 290 289 290 290 289 290 291 291 290 290 290 290 291 291 292 293 293 294 294
238 241 246 252 258 264 269 273 276 280 282 283 285 285 285 286 286 287 287 287 287 288 288 288 287 287 287 287 287 288 289 289 290 289 289 289 290 291 293 294 294 295 297
241 245 250 256 261 265 269 272 276 278 280 283 285 287 288 288 288 287 286 286 285 285 285 285 285 285 284 284 285 285 286 287 287 287 286 287 289 290 291 292 292 294 295
243 248 252 257 261 265 268 271 274 277 279 281 284 287 289 290 289 288 286 284 284 284 284 283 283 283 282 282 282 283 284 284 283 283 283 285 286 288 289 290 291 292 294
244 249 253 257 261 264 267 270 273 276 278 281 284 286 287 289 289 289 287 285 284 284 283 282 281 281 281 282 282 282 282 283 282 281 281 282 283 285 286 288 289 290 291
245 248 252 256 260 264 267 270 273 276 278 280 283 286 287 287 287 287 286 285 284 283 282 282 281 281 281 282 282 282 282 281 280 280 280 281 281 282 284 286 286 287 287
246 249 252 256 260 263 266 269 272 275 278 281 283 284 286 287 286 286 285 284 283 282 281 281 282 282 282 282 283 283 283 282 280 279 279 280 280 281 282 284 284 285 285
248 251 254 257 259 262 265 268 271 275 278 281 282 283 284 285 285 285 284 283 281 281 281 281 282 282 282 282 282 282 282 282 282 280 279 278 278 280 280 281 282 282 283
249 252 255 258 260 262 265 268 272 275 278 280 281 282 283 284 285 285 284 284 283 282 281 281 280 280 280 280 280 280 281 281 280 280 278 277 276 276 278 279 279 280 280
250 253 256 258 260 263 266 269 271 274 277 279 281 283 283 284 284 284 284 283 283 282 282 281 279 279 279 279 279 278 278 278 278 278 278 276 275 274 275 276 277 277 278
250 253 256 258 260 262 266 269 272 275 276 278 281 282 283 284 283 283 283 282 281 280 280 279 279 278 278 277 277 276 275 276 277 277 276 275 273 273 272 273 274 275 276
251 253 256 258 260 263 266 269 273 275 277 279 280 281 282 282 281 281 282 281 280 280 279 278 277 276 276 275 275 274 274 275 276 275 274 273 272 272 272 271 272 273 274
252 254 256 258 260 263 266 269 272 275 277 279 279 279 279 279 280 281 281 280 280 279 279 278 277 275 275 274 273 274 274 274 273 273 274 273 272 271 271 271 270 271 272
255 257 259 261 263 265 268 271 273 275 277 278 278 279 278 278 278 279 279 280 280 279 279 278 276 275 273 273 272 272 272 272 272 272 272 273 272 272 271 271 271 272 273
259 261 263 264 266 268 270 272 273 275 276 277 277 278 278 278 278 278 278 279 279 279 279 278 276 275 273 272 271 271 271 271 271 271 271 271 272 272 272 272 272 274 275
261 263 265 266 268 269 270 272 273 274 275 276 277 278 278 279 279 279 279 279 279 279 278 277 276 274 273 271 270 269 269 270 270 270 270 270 271 271 272 274 274 275 276
Height
5880 5880 5881 5882 5883 5885 5886 5886 5887 5888 5888 5889 5889 5890 5890 5890 5890 5891 5891 5892 5892 5892 5891 5891 5891 5891 5890 5890 5889 5889 5889 5888 5888 5888 5887 5887 5886 5886 5885 5885 5884 5883 5883
5878 5879 5879 5881 5882 5883 5884 5885 5886 5886 5887 5887 5888 5888 5888 5888 5889 5889 5889 5889 5890 5890 5889 5889 5889 5888 5888 5888 5887 5887 5887 5886 5886 5885 5885 5884 5884 5883 5883 5882 5882 5881 5881
5876 5877 5878 5879 5880 5881 5882 5883 5884 5885 5885 5886 5886 5886 5886 5887 5887 5887 5887 5887 5887 5887 5887 5887 5887 5886 5886 5886 5885 5885 5884 5884 5884 5883 5883 5882 5881 5881 5880 5880 5879 5879 5878
5874 5875 5876 5877 5879 5880 5881 5882 5883 5883 5884 5884 5884 5884 5885 5885 5885 5885 5885 5885 5885 5885 5885 5885 5884 5884 5884 5883 5883 5882 5882 5881 5881 5881 5880 5880 5879 5878 5878 5877 5877 5876 5876
5872 5873 5874 5876 5877 5878 5879 5880 5881 5881 5882 5882 5882 5883 5883 5883 5883 5883 5883 5882 5882 5882 5882 5882 5882 5881 5881 5881 5880 5880 5879 5879 5878 5878 5877 5877 5876 5876 5875 5874 5874 5873 5873
5869 5871 5872 5873 5874 5876 5877 5878 5879 5879 5880 5880 5880 5881 5881 5881 5881 5880 5880 5880 5880 5879 5879 5879 5879 5878 5878 5878 5877 5877 5876 5876 5875 5875 5874 5873 5873 5872 5872 5871 5871 5870 5870
5867 5868 5869 5870 5872 5873 5874 5875 5876 5877 5878 5878 5878 5878 5878 5878 5878 5878 5878 5877 5877 5877 5876 5876 5876 5875 5875 5875 5874 5873 5873 5872 5872 5871 5870 5870 5869 5869 5868 5868 5868 5867 5867
5864 5864 5866 5867 5869 5870 5871 5872 5873 5874 5875 5875 5875 5875 5875 5875 5875 5875 5875 5874 5874 5874 5873 5873 5873 5872 5872 5871 5870 5870 5869 5868 5868 5867 5867 5866 5866 5865 5865 5864 5864 5863 5863
5860 5861 5862 5864 5866 5867 5868 5869 5870 5871 5872 5872 5872 5872 5872 5872 5872 5872 5872 5871 5871 5871 5870 5870 5869 5869 5868 5868 5867 5866 5865 5865 5864 5864 5863 5862 5862 5861 5861 5860 5860 5859 5859
5856 5858 5859 5861 5862 5864 5865 5865 5866 5867 5868 5868 5869 5869 5869 5869 5869 5868 5868 5868 5867 5867 5867 5866 5866 5865 5865 5864 5863 5863 5862 5861 5861 5860 5859 5859 5858 5858 5857 5856 5856 5855 5854
5852 5854 5856 5857 5859 5860 5861 5862 5862 5863 5864 5864 5865 5865 5865 5865 5865 5865 5864 5864 5864 5863 5863 5862 5862 5861 5861 5860 5860 5859 5858 5858 5857 5856 5856 5855 5854 5854 5853 5852 5852 5851 5850
5848 5850 5852 5853 5855 5856 5857 5857 5858 5859 5859 5860 5860 5861 5861 5861 5862 5861 5861 5860 5860 5859 5859 5858 5858 5857 5857 5856 5855 5855 5854 5854 5853 5852 5852 5851 5850 5849 5849 5848 5847 5846 5845
5843 5845 5847 5849 5850 5851 5852 5853 5854 5854 5855 5855 5856 5856 5856 5857 5857 5857 5856 5856 5855 5855 5855 5854 5854 5853 5852 5852 5851 5850 5850 5849 5849 5848 5847 5847 5846 5845 5844 5843 5842 5841 5840
5839 5841 5842 5844 5845 5846 5848 5848 5849 5850 5850 5851 5851 5851 5851 5852 5852 5852 5852 5851 5851 5850 5850 5849 5849 5848 5847 5847 5846 5846 5845 5844 5845 5844 5842 5842 5841 5840 5839 5838 5837 5836 5835
5834 5836 5838 5839 5841 5842 5843 5844 5844 5845 5846 5846 5846 5846 5846 5846 5846 5846 5846 5846 5846 5845 5845 5844 5844 5843 5842 5841 5841 5840 5840 5839 5839 5839 5837 5837 5836 5835 5834 5833 5832 5831 5830
5829 5831 5833 5834 5835 5837 5838 5839 5839 5840 5840 5841 5841 5841 5841 5841 5841 5840 5840 5840 5840 5840 5839 5838 5838 5838 5837 5836 5835 5834 5834 5833 5833 5833 5832 5831 5830 5830 5829 5828 5827 5826 5825
5823 5825 5827 5829 5830 5832 5833 5833 5834 5834 5835 5835 5836 5836 5835 5835 5835 5835 5834 5834 5834 5833 5832 5832 5831 5831 5831 5830 5829 5828 5827 5827 5826 5827 5827 5826 5825 5824 5823 5822 5821 5820 5819
5817 5819 5821 5823 5825 5826 5827 5828 5828 5829 5829 5829 5829 5829 5829 5828 5828 5828 5828 5827 5826 5826 5825 5825 5825 5824 5824 5823 5822 5822 5821 5820 5820 5820 5820 5820 5819 5818 5817 5816 5815 5814 5814
5811 5813 5815 5817 5819 5820 5821 5822 5822 5823 5823 5823 5822 5822 5822 5822 5821 5821 5821 5820 5819 5818 5818 5817 5817 5816 5815 5815 5814 5814 5814 5813 5812 5812 5812 5812 5812 5811 5810 5809 5809 5808 5807
5806 5807 5809 5811 5812 5813 5814 5815 5816 5816 5817 5816 5815 5815 5814 5814 5813 5813 5812 5811 5810 5810 5809 5809 5808 5807 5807 5806 5805 5805 5805 5805 5804 5804 5804 5804 5804 5803 5803 5802 5801 5801 5800
5799 5801 5803 5804 5806 5807 5807 5808 5808 5809 5809 5809 5808 5807 5806 5805 5804 5803 5803 5802 5801 5801 5800 5799 5798 5797 5797 5796 5796 5795 5795 5795 5796 5796 5795 5795 5795 5794 5795 5794 5793 5792 5792
5793 5794 5796 5797 5798 5799 5800 5800 5800 5801 5801 5801 5800 5799 5798 5796 5795 5794 5793 5792 5791 5790 5789 5788 5787 5786 5785 5785 5784 5783 5784 5786 5786 5786 5785 5785 5785 5785 5785 5785 5784 5783 5783
5785 5787 5788 5790 5791 5791 5792 5792 5792 5792 5792 5792 5791 5790 5789 5787 5785 5783 5782 5780 5779 5778 5777 5776 5775 5774 5774 5773 5772 5772 5773 5774 5774 5774 5775 5775 5775 5775 5774 5774 5774 5774 5773
5777 5778 5780 5781 5782 5783 5784 5784 5784 5783 5783 5782 5781 5779 5778 5777 5775 5773 5771 5769 5767 5766 5765 5764 5762 5761 5760 5760 5759 5759 5760 5760 5761 5762 5763 5763 5763 5763 5763 5763 5763 5762 5762
5769 5770 5771 5773 5773 5774 5775 5775 5774 5774 5773 5772 5770 5769 5768 5766 5764 5762 5760 5758 5755 5753 5751 5750 5748 5747 5747 5746 5746 5746 5745 5745 5747 5748 5749 5751 5750 5751 5751 5751 5751 5751 5750
5760 5761 5763 5763 5764 5765 5765 5765 5764 5764 5763 5762 5760 5758 5757 5755 5753 5751 5748 5746 5743 5741 5738 5736 5734 5732 5731 5731 5731 5731 5731 5731 5733 5733 5734 5736 5737 5738 5737 5738 5739 5738 5738